User: anonymous   Login
Location: Home
(42.5358°N, 72.7383°W)
Time: 00:41:10
(UTC-05:00)
Language:

PSAT 2 - Orbit

View from above orbital plane
View from above orbital plane
View from above satellite
View from above satellite

Ground track
Ground track

The orbit data is extracted from the following two-line orbital elements,

1 44354U 19036R   22027.35907088  .00034337  00000-0  40084-3 0  9991
2 44354  28.5287  64.1952 0287751 199.9842 158.9280 15.23612958143028
Epoch (UTC): 27 January 2022 08:37:03
Eccentricity: 0.0287751
inclination: 28.5287°
perigee height: 297 km
apogee height: 693 km
right ascension of ascending node: 64.1952°
argument of perigee: 199.9842°
revolutions per day: 15.23612958
mean anomaly at epoch: 158.9280°
orbit number at epoch: 14302

The dashed part of the orbit path shows where the satellite is in the earth's shadow,  

DLR